Weather reports worldwide

Advertisment
Nice, France (7690): temperature & dewpoint: 10.12.2019 13:00:00 - 16.12.2019 13:00:00 (CET)Nice, France (7690): temperature 5cm: 10.12.2019 13:00:00 - 16.12.2019 13:00:00 (CET)Nice, France (7690): temperature -20cm & temperature -100cm: 10.12.2019 13:00:00 - 16.12.2019 13:00:00 (CET)Nice, France (7690): wind speed & gusts: 10.12.2019 13:00:00 - 16.12.2019 13:00:00 (CET)Nice, France (7690): wind direction: 10.12.2019 13:00:00 - 16.12.2019 13:00:00 (CET)Nice, France (7690): reduced air pressure: 10.12.2019 13:00:00 - 16.12.2019 13:00:00 (CET)Nice, France (7690): visibility: 10.12.2019 13:00:00 - 16.12.2019 13:00:00 (CET)Nice, France (7690): sunshine duration: 10.12.2019 13:00:00 - 16.12.2019 13:00:00 (CET)Nice, France (7690): precipitation: 10.12.2019 13:00:00 - 16.12.2019 13:00:00 (CET)
Date & Time tt [°C] td [°C] tt 5cm [°C] tt -20cm [°C] tt -100cm [°C] ff [km/h] ff [kn] fx [km/h] fx [kn] dd ppp [hPa] vv [km] sd [min] rr [mm]
16.12.2019 13:00:00 15,3 9,2 14,4 12,5 14,2 10 5 15 8 NNW 1018,2 30 23 0,0
16.12.2019 12:00:00 13,6 9,0 12,5 12,5 14,1 11 6 19 10 NNW 1019,2 30 0 0,0
16.12.2019 11:00:00 12,4 8,9 11,1 12,5 14,2 14 8 23 12 NNW 1020,1 20 0 0,0
16.12.2019 10:00:00 11,8 8,5 10,8 12,5 14,2 17 9 21 11 NNW 1019,8 20 0 0,2
16.12.2019 09:00:00 12,1 7,6 11,2 12,5 14,2 9 5 16 9 NNW 1019,4 20 0 0,0
16.12.2019 08:00:00 11,9 7,2 11,0 12,5 14,1 11 6 16 9 NNW 1018,8 30 0 0,0
16.12.2019 07:00:00 12,0 7,3 11,1 12,5 14,2 13 7 17 9 NNW 1018,5 30 0 0,0
16.12.2019 06:00:00 11,9 7,6 10,7 12,5 14,2 12 7 15 8 NNW 1018,1 30 0 0,0
16.12.2019 05:00:00 11,4 7,5 10,6 12,4 14,2 10 5 22 12 NNW 1018,3 30 0 0,0
16.12.2019 04:00:00 11,3 7,8 10,7 12,5 14,2 15 8 21 12 NNW 1018,2 30 0 0,0
16.12.2019 03:00:00 11,4 8,1 10,8 12,5 14,2 14 8 21 11 NNW 1018,4 30 0 0,0
16.12.2019 02:00:00 11,4 8,4 10,7 12,5 14,2 10 5 17 9 NNW 1018,2 30 0 0,0
16.12.2019 01:00:00 11,4 8,8 9,8 12,5 14,2 13 7 17 9 NNW 1018,2 30 0 0,0
16.12.2019 00:00:00 11,3 8,9 10,1 12,5 14,2 12 6 17 9 NNW 1018,3 30 0 0,0
15.12.2019 23:00:00 11,4 9,5 9,8 12,4 14,2 12 7 15 8 NNW 1018,0 30 0 0,0
15.12.2019 22:00:00 11,2 9,6 9,7 12,4 14,2 8 5 12 7 NNW 1017,7 30 0 0,0
15.12.2019 21:00:00 11,6 10,3 10,1 12,4 14,2 11 6 13 7 NW 1017,6 40 0 0,0
15.12.2019 20:00:00 11,8 10,5 8,6 12,4 14,2 9 5 12 7 NNW 1017,2 40 0 0,0
15.12.2019 19:00:00 11,8 10,2 8,1 12,4 14,2 4 2 6 3 N 1016,5 40 0 0,0
15.12.2019 18:00:00 13,8 11,7 10,8 12,4 14,2 6 3 13 7 WSW 1015,8 30 0 0,0
15.12.2019 17:00:00 14,8 11,8 13,5 12,4 14,2 9 5 19 10 SW 1015,3 30 29 0,0
15.12.2019 16:00:00 16,1 12,3 15,9 12,4 14,2 15 8 19 10 SSW 1015,2 30 55 0,0
15.12.2019 15:00:00 16,3 12,6 18,7 12,4 14,3 7 4 14 7 SSW 1015,0 60 55 0,0
15.12.2019 14:00:00 16,0 11,4 17,7 12,4 14,3 10 5 14 7 S 1014,8 60 55 0,0
15.12.2019 13:00:00 15,5 9,4 16,3 12,4 14,2 7 4 10 5 SSE 1014,8 60 51 0,0
15.12.2019 12:00:00 16,3 7,5 17,0 12,4 14,2 3 2 18 10 E 1014,6 60 60 0,0
15.12.2019 11:00:00 13,4 4,0 14,1 12,4 14,2 16 8 21 11 NW 1014,6 60 60 0,0
15.12.2019 10:00:00 11,5 3,3 10,3 12,4 14,3 15 8 24 13 NW 1013,7 60 42 0,0
15.12.2019 09:00:00 9,8 2,6 7,4 12,4 14,3 16 9 22 12 NNW 1013,2 60 32 0,0
15.12.2019 08:00:00 8,8 2,6 7,2 12,4 14,2 18 10 23 12 NNW 1012,1 50 0 0,0
15.12.2019 07:00:00 8,9 2,9 7,2 12,4 14,3 15 8 26 14 NNW 1011,4 50 0 0,0
15.12.2019 06:00:00 9,0 3,0 7,1 12,4 14,3 19 11 24 13 NW 1011,1 50 0 0,0
15.12.2019 05:00:00 9,0 3,6 7,5 12,4 14,3 14 8 25 13 NNW 1011,0 50 0 0,0
15.12.2019 04:00:00 9,3 4,1 7,7 12,3 14,3 13 7 25 13 NNW 1011,1 50 0 0,0
15.12.2019 03:00:00 9,6 4,6 8,0 12,4 14,3 16 9 24 13 NNW 1011,2 50 0 0,0
15.12.2019 02:00:00 9,7 5,5 8,1 12,3 14,3 20 11 24 13 NW 1010,8 40 0 0,0
15.12.2019 01:00:00 9,6 6,1 8,2 12,3 14,3 13 7 18 10 NW 1011,1 40 0 0,0
15.12.2019 00:00:00 9,7 6,4 7,6 12,4 14,4 11 6 18 10 NNW 1011,2 40 0 0,0
14.12.2019 23:00:00 9,7 6,8 7,5 12,4 14,3 8 4 18 10 NNW 1010,0 40 0 0,0
14.12.2019 22:00:00 10,1 6,6 8,6 12,3 14,3 12 6 21 12 N 1009,1 40 0 0,0
14.12.2019 21:00:00 10,6 7,8 9,1 12,3 14,3 13 7 22 12 NNW 1009,0 40 0 0,0
14.12.2019 20:00:00 10,9 8,5 9,5 12,3 14,3 16 8 18 10 NW 1008,8 40 0 0,0
14.12.2019 19:00:00 14,5 10,9 13,0 12,3 14,3 13 7 26 14 ENE 1008,2 50 0 0,0
14.12.2019 18:00:00 15,0 11,4 14,0 12,3 14,4 23 12 33 18 E 1007,3 50 0 0,0
14.12.2019 17:00:00 15,3 11,1 14,1 12,3 14,3 27 15 34 18 E 1006,4 50 16 0,0
14.12.2019 16:00:00 15,7 10,2 15,3 12,3 14,4 18 10 28 15 ENE 1005,3 60 31 0,0
14.12.2019 15:00:00 15,6 10,1 15,4 12,3 14,4 18 10 23 12 E 1004,4 60 27 0,0
14.12.2019 14:00:00 16,3 10,4 17,7 12,4 14,4 21 11 30 16 E 1004,1 60 57 0,0
14.12.2019 13:00:00 16,1 10,0 16,2 12,3 14,4 26 14 39 21 E 1003,8 60 60 0,0
14.12.2019 12:00:00 15,7 9,8 17,1 12,4 14,4 29 16 45 24 E 1003,0 60 60 0,0
14.12.2019 11:00:00 15,3 9,6 16,9 12,4 14,4 38 21 49 26 E 1002,1 60 60 0,0
14.12.2019 10:00:00 17,9 7,0 17,5 12,4 14,4 11 6 28 15 NE 1000,5 60 60 0,0
14.12.2019 09:00:00 17,7 5,3 14,8 12,4 14,4 27 15 42 23 W 999,5 60 38 0,0
14.12.2019 08:00:00 16,7 6,5 14,8 12,4 14,4 29 16 62 34 W 998,6 60 0 0,0
14.12.2019 07:00:00 16,3 7,0 14,1 12,4 14,4 34 19 64 35 WSW 998,2 60 0 0,0
14.12.2019 06:00:00 15,6 6,6 9,1 12,4 14,5 36 19 54 29 SW 998,1 60 0 0,0
14.12.2019 05:00:00 14,9 5,1 11,4 12,4 14,4 19 10 36 20 NW 998,0 60 0 0,0
14.12.2019 04:00:00 14,2 5,3 9,1 12,4 14,4 29 15 55 30 SW 997,7 60 0 0,0
14.12.2019 03:00:00 13,3 3,6 7,9 12,4 14,5 13 7 24 13 N 998,2 60 0 0,0
14.12.2019 02:00:00 11,4 1,6 8,0 12,5 14,4 3 1 33 18 WNW 998,0 60 0 0,0
14.12.2019 01:00:00 11,7 2,4 9,7 12,4 14,4 22 12 42 23 WSW 997,9 60 0 0,0
14.12.2019 00:00:00 11,5 1,1 8,1 12,5 14,5 17 9 30 16 WNW 997,5 60 0 0,0
13.12.2019 23:00:00 10,0 -1,1 7,3 12,5 14,5 16 8 25 14 NW 996,8 60 0 0,0
13.12.2019 22:00:00 9,7 -0,2 7,4 12,5 14,5 16 9 31 17 WNW 996,0 60 0 0,0
13.12.2019 21:00:00 9,6 -0,3 7,6 12,5 14,5 18 10 35 19 NW 995,7 60 0 0,0
13.12.2019 20:00:00 11,6 -0,3 10,3 12,5 14,5 24 13 47 25 WNW 994,8 60 0 0,0
13.12.2019 19:00:00 11,9 -0,3 10,2 12,5 14,5 26 14 42 23 W 993,8 60 0 0,0
13.12.2019 18:00:00 12,3 -0,3 10,8 12,5 14,5 26 14 55 30 W 993,2 60 0 0,0
13.12.2019 17:00:00 13,4 -3,9 11,1 12,5 14,5 19 11 54 29 WNW 991,3 60 19 0,0
13.12.2019 16:00:00 12,5 1,2 12,3 12,6 14,5 40 21 78 42 WNW 989,9 60 60 0,0
13.12.2019 15:00:00 15,3 -2,2 15,7 12,6 14,6 32 18 67 36 W 988,2 60 60 0,0
13.12.2019 14:00:00 15,7 -1,0 16,4 12,6 14,6 37 20 67 36 WNW 987,1 60 60 0,0
13.12.2019 13:00:00 16,3 1,2 15,4 12,6 14,5 37 20 80 43 WNW 987,0 60 60 0,0
13.12.2019 12:00:00 15,6 5,5 11,3 12,6 14,6 16 9 48 26 NW 986,0 40 60 0,0
13.12.2019 11:00:00 9,0 5,6 6,9 12,6 14,6 19 10 31 17 NNW 987,6 40 19 0,0
13.12.2019 10:00:00 7,5 5,1 5,4 12,6 14,6 17 9 32 17 NW 988,4 20 2 1,2
13.12.2019 09:00:00 5,7 4,3 5,1 12,6 14,6 18 10 34 18 NW 990,3 4,0 0 3,2
13.12.2019 08:00:00 5,8 3,6 5,0 12,6 14,6 16 9 29 16 NW 991,1 7 0 1,4
13.12.2019 07:00:00 6,0 3,3 4,5 12,6 14,6 18 10 31 17 NNW 992,6 20 0 0,6
13.12.2019 06:00:00 6,2 2,3 5,1 12,6 14,6 16 9 25 13 NNW 993,6 30 0 0,0
13.12.2019 05:00:00 6,3 2,2 5,0 12,7 14,6 19 10 28 15 NW 994,2 30 0 0,0
13.12.2019 04:00:00 6,3 2,4 4,8 12,6 14,6 20 11 30 16 NW 995,5 30 0 0,0
13.12.2019 03:00:00 5,8 3,0 4,7 12,7 14,6 21 11 29 16 NW 996,5 30 0 0,0
13.12.2019 02:00:00 5,6 3,1 4,8 12,7 14,6 13 7 23 12 NNW 997,9 20 0 0,2
13.12.2019 01:00:00 5,6 2,8 4,9 12,7 14,6 13 7 41 22 NNW 999,4 15 0 1,2
13.12.2019 00:00:00 6,9 1,0 4,3 12,7 14,6 16 9 25 14 NNW 1000,8 15 0 0,6
12.12.2019 23:00:00 7,8 -2,3 5,5 12,7 14,6 14 8 22 12 NW 1001,6 30 0 0,0
12.12.2019 22:00:00 8,0 -4,2 5,5 12,7 14,7 12 7 19 10 NW 1001,6 50 0 0,0
12.12.2019 21:00:00 7,5 -3,4 5,4 12,7 14,7 14 8 19 10 NNW 1002,1 50 0 0,0
12.12.2019 20:00:00 7,2 -1,2 5,4 12,7 14,7 15 8 20 11 NNW 1002,8 50 0 0,0
12.12.2019 19:00:00 7,5 1,1 5,4 12,7 14,6 16 9 22 12 NNW 1003,0 50 0 0,0
12.12.2019 18:00:00 8,6 1,7 5,6 12,8 14,7 16 8 19 10 NNW 1003,1 20 0 0,0
12.12.2019 17:00:00 11,0 2,6 7,2 12,8 14,7 8 4 11 6 NNE 1003,4 50 28 0,0
12.12.2019 16:00:00 12,9 -2,2 12,1 12,8 14,7 6 3 9 5 E 1003,6 50 60 0,0
12.12.2019 15:00:00 13,7 -1,1 16,1 12,8 14,7 6 3 10 6 SSE 1003,6 50 60 0,0
12.12.2019 14:00:00 13,6 -1,6 15,0 12,8 14,7 11 6 16 9 SSW 1004,1 50 46 0,0
12.12.2019 13:00:00 13,2 -0,5 12,9 12,8 14,7 13 7 19 11 SW 1004,5 50 60 0,0
12.12.2019 12:00:00 11,8 1,7 12,4 12,8 14,7 14 8 18 10 WSW 1004,9 50 32 0,0
12.12.2019 11:00:00 11,2 0,0 13,7 12,8 14,7 9 5 18 10 NNW 1005,1 50 56 0,0
12.12.2019 10:00:00 9,0 0,4 9,7 12,9 14,7 10 5 14 8 NW 1005,0 50 60 0,0
12.12.2019 09:00:00 7,1 2,2 3,1 12,9 14,7 9 5 17 9 WNW 1004,5 40 40 0,0
12.12.2019 08:00:00 5,1 0,1 2,8 12,9 14,7 14 8 21 11 NNW 1003,8 40 0 0,0
12.12.2019 07:00:00 5,0 0,2 2,9 12,9 14,7 14 7 22 12 NW 1003,7 20 0 0,0
12.12.2019 06:00:00 5,7 0,6 2,5 12,9 14,7 16 9 25 13 NW 1003,1 20 0 0,0
12.12.2019 05:00:00 5,6 1,3 3,9 12,9 14,7 16 9 20 11 NW 1003,4 20 0 0,0
12.12.2019 04:00:00 6,4 1,5 3,8 12,9 14,8 13 7 22 12 NNW 1003,7 20 0 0,0
12.12.2019 03:00:00 6,2 1,9 4,2 12,9 14,8 14 7 23 13 NNW 1004,9 20 0 0,0
12.12.2019 02:00:00 6,8 2,1 5,4 12,9 14,8 14 8 21 11 NNW 1005,4 20 0 0,0
12.12.2019 01:00:00 7,6 2,5 4,5 12,9 14,7 8 5 17 9 WNW 1006,0 20 0 0,0
12.12.2019 00:00:00 8,5 3,1 6,8 12,9 14,8 16 9 27 14 WNW 1006,4 20 0 0,0
11.12.2019 23:00:00 9,0 2,3 6,2 13,0 14,8 9 5 17 9 N 1005,8 20 0 0,0
11.12.2019 22:00:00 8,8 2,8 7,0 13,0 14,8 5 3 12 7 N 1006,4 20 0 0,0
11.12.2019 21:00:00 9,1 3,3 7,5 13,0 14,8 12 6 16 8 NNW 1007,3 20 0 0,0
11.12.2019 20:00:00 8,7 4,5 5,4 13,0 14,8 6 3 13 7 NW 1008,0 20 0 0,0
11.12.2019 19:00:00 8,6 1,9 6,1 13,0 14,8 0 0 22 12 N 1009,3 30 0 0,0
11.12.2019 18:00:00 8,4 2,8 6,7 13,0 14,8 13 7 22 12 NNW 1010,4 15 0 0,4
11.12.2019 17:00:00 9,8 -0,1 8,7 13,0 14,8 16 9 23 12 NW 1011,6 40 0 0,0
11.12.2019 16:00:00 10,1 -0,4 9,0 13,0 14,8 10 5 18 10 NW 1012,4 40 0 0,0
11.12.2019 15:00:00 10,7 -0,2 10,2 13,0 14,8 12 7 18 10 NNW 1013,2 50 11 0,0
11.12.2019 14:00:00 10,4 -1,3 10,0 13,1 14,8 12 7 21 12 NW 1014,0 50 0 0,0
11.12.2019 13:00:00 9,9 -2,4 9,9 13,1 14,8 17 9 22 12 NW 1014,8 50 0 0,0
11.12.2019 12:00:00 9,5 -3,1 9,7 13,1 14,8 18 10 24 13 NW 1016,1 50 0 0,0
11.12.2019 11:00:00 9,2 -3,1 9,0 13,1 14,8 21 11 29 16 NNW 1017,1 50 2 0,0
11.12.2019 10:00:00 8,5 -3,4 8,1 13,1 14,8 18 10 25 14 NNW 1017,7 50 39 0,0
11.12.2019 09:00:00 7,3 -3,3 5,0 13,1 14,8 19 10 29 15 NNW 1018,1 50 41 0,0
11.12.2019 08:00:00 6,0 -3,4 4,9 13,1 14,8 21 11 29 16 NNW 1018,1 50 0 0,0
11.12.2019 07:00:00 6,2 -3,5 4,9 13,1 14,8 22 12 30 16 NNW 1018,5 40 0 0,0
11.12.2019 06:00:00 6,3 -3,1 5,1 13,2 14,8 23 12 30 16 NNW 1019,1 40 0 0,0
11.12.2019 05:00:00 6,6 -3,1 5,3 13,2 14,9 16 9 28 15 NNW 1019,4 40 0 0,0
11.12.2019 04:00:00 6,8 -2,9 5,5 13,2 14,9 16 9 24 13 NNW 1019,7 40 0 0,0
11.12.2019 03:00:00 7,3 -2,7 6,2 13,2 14,9 18 10 29 16 NNW 1020,3 40 0 0,0
11.12.2019 02:00:00 7,5 -2,5 6,4 13,2 14,9 20 11 27 15 NNW 1020,9 30 0 0,0
11.12.2019 01:00:00 7,8 -2,5 6,6 13,2 14,8 22 12 31 17 NNW 1021,2 30 0 0,0
11.12.2019 00:00:00 8,3 -1,8 6,8 13,2 14,9 16 9 25 14 NNW 1021,5 30 0 0,0
10.12.2019 23:00:00 8,8 -1,3 7,0 13,2 14,9 22 12 27 15 NNW 1021,0 30 0 0,0
10.12.2019 22:00:00 8,8 -0,3 7,2 13,2 14,9 16 9 26 14 NNW 1020,9 30 0 0,0
10.12.2019 21:00:00 9,6 1,0 7,8 13,2 14,9 16 9 26 14 NNW 1020,6 30 0 0,0
10.12.2019 20:00:00 10,2 2,1 7,2 13,2 14,9 15 8 18 10 NW 1020,2 30 0 0,0
10.12.2019 19:00:00 11,1 4,1 7,9 13,2 14,9 8 4 20 11 WNW 1019,6 60 0 0,0
10.12.2019 18:00:00 12,4 6,0 9,8 13,2 14,9 11 6 23 12 W 1018,7 60 0 0,0
10.12.2019 17:00:00 13,9 6,0 11,9 13,2 14,9 16 9 27 15 WSW 1018,2 60 28 0,0
10.12.2019 16:00:00 16,9 3,9 16,2 13,3 14,9 8 5 23 12 S 1017,5 60 60 0,0
10.12.2019 15:00:00 17,4 5,0 19,5 13,2 14,9 20 11 24 13 S 1016,9 60 60 0,0
10.12.2019 14:00:00 19,1 -9,1 19,8 13,2 14,9 9 5 26 14 N 1016,6 60 60 0,0
10.12.2019 13:00:00 18,6 -8,6 16,2 13,2 14,9 17 9 29 16 N 1017,2 60 60 0,0

tt = temperature
td = dewpoint
tt 5cm = temperature 5cm
tt -20cm = temperature -20cm
tt -100cm = temperature -100cm
ff = wind speed
fx = gusts
dd = wind direction
ppp = reduced air pressure
vv = visibility
sd = sunshine duration
rr = precipitation

Next stations